Location: Le Rocchette
(44.3500°N, 7.8333°E)
Time: 13:02:51
(UTC+00:00)

H-2A R/B - Pass Details

Date: 17 November 2019
Orbit: 530 x 652 km, 98.3° (Epoch: 05 December)

Event Time Altitude Azimuth Distance (km) Brightness Sun altitude
Rises 05:08:04 0° 357° (N) 2,984 5.9 -14.0°
Reaches altitude 10° 05:11:00 10° 337° (NNW) 2,069 4.9 -13.5°
Enters shadow 05:12:38 15° 316° (NW) 1,755 4.4 -13.3°
